DW3839 Weather Reports


time (UTC)temp
C
wind
direction
speed
KPH
gust
KPH
rain 1hr
cm
rain 24hr
cm
rain mn
cm
humidity
%
barometer
mb
20260507170113 15 186 3.2 11.3 0.00 0.13 0.13 56 1010.6
20260507165613 15 209 4.8 9.7 0.00 0.18 0.13 56 1010.8
20260507165117 15 146 1.6 8.0 0.00 0.18 0.13 56 1010.8
20260507164624 15 150 1.6 8.0 0.00 0.18 0.13 59 1010.8
20260507164121 14 210 4.8 8.0 0.00 0.18 0.13 61 1011.2
20260507163505 13 178 1.6 8.0 0.00 0.18 0.13 62 1011.2
20260507163102 13 187 1.6 8.0 0.00 0.18 0.13 57 1011.2
20260507162607 13 117 4.8 8.0 0.00 0.18 0.13 60 1011.3
20260507162108 13 360 0.0 4.8 0.03 0.18 0.13 60 1011.3
20260507161616 13 360 1.6 4.8 0.03 0.18 0.13 63 1011.3
20260507161112 13 360 1.6 4.8 0.03 0.18 0.13 60 1011.7
20260507160523 12 360 1.6 6.4 0.03 0.18 0.13 67 1011.7
20260507160122 12 360 1.6 9.7 0.03 0.18 0.13 61 1011.7
20260507155508 13 360 3.2 9.7 0.03 0.28 0.13 62 1011.7
20260507155105 12 360 1.6 9.7 0.03 0.28 0.13 63 1011.7
20260507154612 13 360 3.2 9.7 0.03 0.28 0.13 61 1011.7
20260507154110 13 360 3.2 8.0 0.03 0.28 0.13 64 1011.8
20260507153610 13 360 3.2 8.0 0.03 0.28 0.13 67 1011.8
20260507153112 13 360 1.6 6.4 0.03 0.28 0.13 66 1011.8
20260507152613 13 360 1.6 8.0 0.00 0.25 0.10 68 1011.8
20260507152115 12 360 3.2 14.5 0.00 0.25 0.10 63 1011.8
20260507151619 12 360 4.8 14.5 0.00 0.25 0.10 68 1011.8
20260507151120 12 360 3.2 8.0 0.00 0.25 0.10 68 1012.0
20260507150518 12 360 1.6 6.4 0.00 0.25 0.10 65 1012.0
20260507150114 12 360 1.6 6.4 0.00 0.25 0.10 71 1012.0
20260507145617 12 360 0.0 4.8 0.00 0.41 0.10 75 1012.2
20260507145114 12 360 1.6 4.8 0.00 0.41 0.10 77 1012.2
20260507144619 12 360 1.6 6.4 0.00 0.41 0.10 77 1012.2
20260507144120 12 360 1.6 6.4 0.00 0.41 0.10 74 1012.3
20260507143524 11 360 0.0 4.8 0.00 0.41 0.10 77 1012.3
20260507143006 11 360 0.0 3.2 0.00 0.41 0.10 82 1012.3
20260507142607 11 360 0.0 3.2 0.00 0.41 0.10 82 1012.5
20260507142108 11 360 0.0 1.6 0.00 0.41 0.10 79 1012.5
20260507141614 11 360 0.0 4.8 0.00 0.41 0.10 81 1012.5
20260507141116 11 360 0.0 8.0 0.00 0.41 0.10 79 1012.7
20260507140504 11 360 0.0 1.6 0.00 0.41 0.10 85 1012.7
20260507140107 11 360 0.0 1.6 0.00 0.41 0.10 84 1012.7
20260507135605 11 360 0.0 3.2 0.00 0.56 0.10 84 1012.7
20260507135108 11 360 0.0 3.2 0.00 0.56 0.10 83 1012.7
20260507134608 11 360 0.0 8.0 0.00 0.56 0.10 78 1012.7
20260507134108 11 360 3.2 8.0 0.00 0.56 0.10 77 1012.7
20260507133615 11 360 0.0 6.4 0.00 0.56 0.10 81 1012.7
20260507133152 11 360 0.0 6.4 0.00 0.56 0.10 82 1012.7
20260507132618 11 360 1.6 8.0 0.00 0.56 0.10 83 1012.7
20260507132119 11 360 1.6 12.9 0.00 0.56 0.10 79 1012.7
20260507131620 11 360 4.8 12.9 0.00 0.56 0.10 81 1012.7
20260507131125 11 360 3.2 9.7 0.00 0.56 0.10 87 1012.6
20260507130515 11 360 1.6 9.7 0.00 0.56 0.10 87 1012.6
20260507130115 11 360 1.6 6.4 0.00 0.56 0.10 91 1012.6
20260507125620 11 360 1.6 6.4 0.00 0.71 0.10 92 1012.7
20260507125119 11 360 0.0 1.6 0.00 0.71 0.10 94 1012.7
20260507124504 11 360 0.0 0.0 0.00 0.71 0.10 93 1012.7
20260507124105 11 360 0.0 0.0 0.00 0.71 0.10 94 1012.7
20260507123611 11 360 0.0 0.0 0.03 0.71 0.10 93 1012.7
20260507123111 11 360 0.0 0.0 0.03 0.71 0.10 92 1012.7
20260507122614 11 360 0.0 0.0 0.03 0.71 0.10 92 1012.7
20260507122120 11 360 0.0 6.4 0.03 0.71 0.10 93 1012.7
20260507121619 11 360 1.6 6.4 0.03 0.71 0.10 93 1012.7
20260507121121 11 360 0.0 9.7 0.03 0.71 0.10 92 1012.6
20260507120512 11 360 1.6 4.8 0.03 0.71 0.10 93 1012.6
20260507120114 11 360 0.0 4.8 0.03 0.71 0.10 93 1012.6
20260507115614 10 360 0.0 4.8 0.03 0.71 0.10 93 1012.2
20260507115117 10 360 1.6 4.8 0.03 0.71 0.10 92 1012.2
20260507114617 10 360 0.0 0.0 0.03 0.71 0.10 91 1012.2
20260507114118 10 360 0.0 4.8 0.03 0.71 0.10 92 1012.1
20260507113619 10 360 0.0 4.8 0.00 0.71 0.08 94 1012.1
20260507113008 10 360 0.0 0.0 0.00 0.71 0.08 94 1012.1
20260507112603 10 360 0.0 1.6 0.00 0.71 0.08 95 1012.2
20260507112106 10 360 0.0 4.8 0.00 0.71 0.08 95 1012.2
20260507111608 10 360 0.0 4.8 0.00 0.71 0.08 96 1012.2
20260507111110 10 360 0.0 4.8 0.00 0.71 0.08 97 1012.1
20260507110506 10 360 0.0 1.6 0.00 0.71 0.08 97 1012.1
20260507110108 10 360 0.0 1.6 0.00 0.71 0.08 97 1012.1
20260507105607 10 360 0.0 3.2 0.00 0.71 0.08 96 1011.9
20260507105109 10 360 0.0 3.2 0.00 0.71 0.08 97 1011.9
20260507104609 10 360 0.0 0.0 0.00 0.71 0.08 97 1011.9
20260507104113 10 360 0.0 0.0 0.00 0.71 0.08 96 1011.9
20260507103613 10 360 0.0 0.0 0.00 0.71 0.08 96 1011.9
20260507103112 10 360 0.0 0.0 0.00 0.71 0.08 97 1011.9
20260507102619 10 360 0.0 0.0 0.00 0.71 0.08 97 1011.6
20260507102122 10 360 0.0 0.0 0.00 0.71 0.08 97 1011.6
20260507101503 10 360 0.0 0.0 0.00 0.71 0.08 97 1011.6
20260507101104 10 360 0.0 0.0 0.00 0.71 0.08 97 1011.6
20260507100516 10 360 0.0 3.2 0.00 0.71 0.08 96 1011.6
20260507100115 10 360 0.0 3.2 0.00 0.71 0.08 96 1011.6
20260507095620 10 360 0.0 3.2 0.00 0.71 0.08 96 1011.5
20260507095005 10 360 0.0 4.8 0.00 0.71 0.08 96 1011.5
20260507094603 10 360 0.0 8.0 0.00 0.71 0.08 95 1011.5
20260507094106 11 360 0.0 8.0 0.00 0.71 0.08 96 1011.3
20260507093608 11 360 0.0 4.8 0.03 0.71 0.08 95 1011.3
20260507093109 11 360 0.0 6.4 0.03 0.71 0.08 94 1011.3
20260507092613 11 360 0.0 6.4 0.03 0.71 0.08 94 1011.1
20260507092115 11 360 1.6 6.4 0.03 0.71 0.08 95 1011.1
20260507091622 11 360 0.0 9.7 0.03 0.71 0.08 97 1011.1
20260507091122 11 360 1.6 9.7 0.03 0.71 0.08 98 1011.1
20260507090512 11 360 3.2 8.0 0.03 0.71 0.08 99 1011.1
20260507090111 11 360 0.0 4.8 0.03 0.71 0.08 99 1011.1
20260507085616 11 360 0.0 4.8 0.03 0.71 0.08 99 1011.1
20260507085119 11 360 1.6 4.8 0.03 0.71 0.08 99 1011.1
20260507084619 11 360 0.0 1.6 0.03 0.71 0.08 99 1011.1
20260507084002 11 360 0.0 1.6 0.03 0.71 0.08 99 1011.1
20260507083602 11 360 0.0 1.6 0.00 0.69 0.05 99 1011.1
20260507083105 11 360 0.0 0.0 0.00 0.69 0.05 99 1011.1
20260507082607 11 360 0.0 0.0 0.00 0.69 0.05 99 1011.0
20260507082112 11 360 0.0 3.2 0.00 0.69 0.05 98 1011.0
20260507081612 11 360 0.0 3.2 0.00 0.69 0.05 98 1011.0
20260507081116 11 360 0.0 3.2 0.00 0.69 0.05 98 1010.6
20260507080504 11 360 0.0 3.2 0.00 0.69 0.05 98 1010.6
20260507080103 11 360 0.0 3.2 0.00 0.69 0.05 98 1010.6
20260507075608 11 360 0.0 1.6 0.00 0.69 0.05 98 1010.6
20260507075113 11 360 0.0 4.8 0.00 0.69 0.05 98 1010.6
20260507074616 11 360 0.0 4.8 0.00 0.69 0.05 98 1010.6
20260507074118 11 360 0.0 8.0 0.00 0.69 0.05 98 1010.3
20260507073620 11 360 0.0 8.0 0.03 0.69 0.05 98 1010.3
20260507073003 11 360 0.0 4.8 0.03 0.69 0.05 97 1010.3
20260507072603 11 360 0.0 4.8 0.03 0.69 0.05 97 1010.5
20260507072110 11 325 0.0 6.4 0.03 0.69 0.05 97 1010.5
20260507071612 11 337 0.0 9.7 0.03 0.69 0.05 97 1010.5
20260507071115 11 331 3.2 9.7 0.03 0.69 0.05 97 1010.4
20260507070508 11 9 3.2 9.7 0.03 0.69 0.05 97 1010.4
20260507070108 11 277 0.0 8.0 0.03 0.69 0.05 98 1010.4
20260507065609 11 355 1.6 8.0 0.03 0.69 0.05 98 1010.5
20260507065108 12 323 1.6 8.0 0.03 0.69 0.05 98 1010.5
20260507064612 12 326 1.6 8.0 0.03 0.69 0.05 98 1010.5
20260507064113 12 335 1.6 8.0 0.03 0.69 0.05 98 1010.5
20260507063617 12 325 1.6 9.7 0.00 0.66 0.03 98 1010.5
20260507063116 12 321 3.2 11.3 0.00 0.66 0.03 98 1010.5
20260507062615 12 344 4.8 11.3 0.00 0.66 0.03 98 1010.4
20260507062003 12 331 4.8 9.7 0.00 0.66 0.03 98 1010.4
20260507061604 12 355 4.8 8.0 0.00 0.66 0.03 98 1010.4
20260507061105 12 342 3.2 8.0 0.03 0.66 0.03 98 1010.4
20260507060516 12 332 1.6 4.8 0.03 0.66 0.03 98 1010.4
20260507060115 12 319 1.6 4.8 0.03 0.66 0.03 98 1010.4
20260507055616 12 355 1.6 4.8 0.03 0.66 0.03 97 1010.5
20260507055007 12 305 0.0 9.7 0.03 0.66 0.03 97 1010.5
20260507054606 12 334 3.2 9.7 0.03 0.66 0.03 97 1010.5
20260507054106 12 328 4.8 9.7 0.03 0.66 0.03 97 1010.6
20260507053609 12 355 1.6 11.3 0.03 0.66 0.03 97 1010.6
20260507053127 12 360 3.2 11.3 0.03 0.66 0.03 97 1010.6
20260507052612 12 325 3.2 9.7 0.03 0.66 0.03 97 1010.6
20260507052115 12 323 3.2 11.3 0.03 0.66 0.03 97 1010.6
20260507051616 12 348 4.8 11.3 0.03 0.66 0.03 97 1010.6
20260507051119 12 333 4.8 9.7 0.00 0.64 0.00 96 1010.5
20260507050508 12 360 0.0 6.4 0.00 0.64 0.00 96 1010.5
20260507050111 12 306 1.6 6.4 0.00 0.64 0.00 95 1010.5
20260507045606 13 336 1.6 8.0 0.00 0.64 0.00 94 1011.1
20260507045112 13 355 3.2 12.9 0.00 0.64 0.00 94 1011.1
20260507044631 13 346 4.8 12.9 0.00 0.64 0.00 92 1011.1
20260507044114 13 348 3.2 8.0 0.00 0.64 0.00 90 1010.4
20260507043618 13 333 1.6 14.5 0.00 0.64 0.00 91 1010.4
20260507043120 13 11 3.2 16.1 0.00 0.64 0.00 89 1010.4
20260507042621 13 65 1.6 16.1 0.00 0.64 0.00 89 1010.6
20260507042007 14 336 4.8 14.5 0.00 0.64 0.00 89 1010.6
20260507041603 14 23 4.8 22.5 0.00 0.64 0.00 89 1010.6
20260507041110 15 343 4.8 22.5 0.00 0.64 0.00 88 1010.5
20260507040523 15 343 9.7 22.5 0.00 0.64 0.00 88 1010.5
20260507040004 15 18 6.4 11.3 0.00 0.64 0.64 86 1010.5
20260507035603 15 342 3.2 9.7 0.00 0.64 0.64 87 1010.0
20260507035108 15 335 4.8 9.7 0.00 0.64 0.64 88 1010.0
20260507034608 15 26 1.6 8.0 0.00 0.64 0.64 87 1010.0
20260507034110 15 325 4.8 11.3 0.00 0.64 0.64 87 1010.3
20260507033613 15 351 3.2 12.9 0.00 0.64 0.64 87 1010.3
20260507033132 15 331 4.8 14.5 0.00 0.64 0.64 87 1010.3
20260507032615 15 323 3.2 14.5 0.00 0.64 0.64 86 1010.2
20260507032117 16 324 6.4 19.3 0.00 0.64 0.64 86 1010.2
20260507031619 16 338 6.4 19.3 0.00 0.64 0.64 85 1010.2
20260507031125 16 262 6.4 17.7 0.00 0.64 0.64 86 1010.0
20260507030513 16 331 8.0 17.7 0.00 0.64 0.64 86 1010.0
20260507030113 16 324 4.8 11.3 0.00 0.64 0.64 86 1010.0
20260507025614 16 355 6.4 14.5 0.00 0.64 0.64 87 1009.4
20260507025117 16 15 6.4 14.5 0.00 0.64 0.64 85 1009.4
20260507024616 16 350 3.2 11.3 0.00 0.64 0.64 85 1009.4
20260507024115 16 339 3.2 11.3 0.00 0.64 0.64 85 1009.7
20260507023506 16 338 4.8 16.1 0.00 0.64 0.64 84 1009.7
20260507023104 16 19 3.2 17.7 0.00 0.64 0.64 86 1009.7
20260507022605 16 348 6.4 17.7 0.00 0.64 0.64 86 1009.4
20260507022109 16 314 3.2 16.1 0.00 0.64 0.64 87 1009.4
20260507021608 16 302 4.8 16.1 0.00 0.64 0.64 87 1009.4
20260507021109 17 13 1.6 12.9 0.00 0.64 0.64 88 1009.2
20260507020521 17 327 6.4 12.9 0.00 0.64 0.64 89 1009.2
20260507020003 17 336 6.4 14.5 0.00 0.64 0.64 89 1009.2
20260507015603 17 342 6.4 14.5 0.00 0.64 0.64 89 1009.1
20260507015106 17 348 3.2 16.1 0.00 0.64 0.64 89 1009.1
20260507014607 17 348 6.4 16.1 0.00 0.64 0.64 89 1009.1
20260507014106 17 17 3.2 14.5 0.00 0.64 0.64 89 1009.2
20260507013608 17 22 0.0 8.0 0.00 0.64 0.64 89 1009.2
20260507013115 17 15 1.6 14.5 0.00 0.64 0.64 89 1009.2
20260507012616 17 330 8.0 14.5 0.00 0.64 0.64 89 1009.3
20260507012115 18 351 4.8 14.5 0.00 0.64 0.64 89 1009.3
20260507011617 18 34 4.8 16.1 0.00 0.64 0.64 90 1009.3
20260507011119 18 317 4.8 16.1 0.00 0.64 0.64 90 1009.0
20260507010510 18 24 8.0 12.9 0.00 0.64 0.64 90 1009.0
20260507010111 18 327 3.2 17.7 0.00 0.64 0.64 89 1009.0
20260507005615 18 319 4.8 17.7 0.00 0.64 0.64 89 1009.1
20260507005114 18 355 3.2 12.9 0.00 0.64 0.64 90 1009.1
20260507004613 18 355 3.2 9.7 0.00 0.64 0.64 93 1009.1
20260507004116 18 292 0.0 3.2 0.00 0.64 0.64 94 1008.5
20260507003614 18 243 0.0 3.2 0.00 0.64 0.64 94 1008.5
20260507003117 18 302 0.0 3.2 0.00 0.64 0.64 93 1008.5
20260507002624 18 274 0.0 3.2 0.00 0.64 0.64 93 1008.7
20260507002122 18 241 0.0 1.6 0.00 0.64 0.64 93 1008.7
20260507001505 18 311 0.0 1.6 0.00 0.64 0.64 93 1008.7
20260507001105 18 311 0.0 3.2 0.00 0.64 0.64 92 1008.4
20260507000513 18 294 0.0 8.0 0.00 0.64 0.64 92 1008.4
20260507000113 18 186 0.0 8.0 0.00 0.64 0.64 92 1008.4
20260506235614 18 175 1.6 6.4 0.00 0.64 0.64 92 1008.2
20260506235119 18 231 1.6 8.0 0.00 0.64 0.64 92 1008.2
20260506234620 19 219 4.8 8.0 0.00 0.64 0.64 91 1008.2
20260506234124 19 215 1.6 6.4 0.00 0.64 0.64 91 1008.0
20260506233621 19 215 3.2 6.4 0.00 0.64 0.64 90 1008.0
20260506233004 19 207 0.0 4.8 0.00 0.64 0.64 90 1008.0
20260506232604 20 202 0.0 4.8 0.00 0.64 0.64 89 1007.9
20260506232108 20 231 0.0 4.8 0.00 0.64 0.64 89 1007.9
20260506231615 20 209 1.6 8.0 0.00 0.64 0.64 88 1007.9
20260506231115 20 209 1.6 8.0 0.00 0.64 0.64 87 1007.8
20260506230521 20 219 0.0 4.8 0.00 0.64 0.64 87 1007.8
20260506230120 20 194 1.6 9.7 0.00 0.64 0.64 87 1007.8
20260506225508 20 175 4.8 11.3 0.00 0.64 0.64 86 1007.8
20260506225104 20 236 1.6 11.3 0.00 0.64 0.64 87 1007.8
20260506224610 20 229 1.6 9.7 0.00 0.64 0.64 87 1007.8
20260506224109 20 176 1.6 9.7 0.00 0.64 0.64 87 1007.7
20260506223609 20 228 4.8 17.7 0.00 0.64 0.64 87 1007.7
20260506223112 20 247 4.8 17.7 0.00 0.64 0.64 86 1007.7
20260506222615 20 207 3.2 11.3 0.00 0.64 0.64 86 1007.6
20260506222118 20 217 4.8 14.5 0.00 0.64 0.64 85 1007.6
20260506221624 21 180 1.6 12.9 0.00 0.64 0.64 86 1007.6
20260506221127 21 246 1.6 9.7 0.00 0.64 0.64 86 1007.5
20260506220514 21 188 3.2 12.9 0.00 0.64 0.64 85 1007.5
20260506220117 21 255 3.2 16.1 0.00 0.64 0.64 85 1007.5
20260506215618 20 198 3.2 16.1 0.00 0.64 0.64 85 1007.7
20260506215118 20 211 4.8 11.3 0.00 0.64 0.64 86 1007.7
20260506214624 20 217 4.8 11.3 0.00 0.64 0.64 86 1007.7
20260506214004 20 223 6.4 16.1 0.00 0.64 0.64 84 1007.5
20260506213603 20 209 4.8 16.1 0.00 0.64 0.64 85 1007.5
20260506213107 20 229 1.6 19.3 0.00 0.64 0.64 85 1007.5
20260506212612 20 194 6.4 19.3 0.00 0.64 0.64 84 1007.3
20260506212111 20 232 8.0 20.9 0.00 0.64 0.64 85 1007.3
20260506211617 20 154 4.8 17.7 0.00 0.64 0.64 85 1007.3
20260506211118 20 273 8.0 17.7 0.00 0.64 0.64 84 1007.1
20260506210511 21 239 4.8 17.7 0.00 0.64 0.64 83 1007.1
20260506210112 21 240 9.7 17.7 0.00 0.64 0.64 82 1007.1
20260506205613 21 195 8.0 17.7 0.00 0.64 0.64 83 1006.8
20260506205116 21 159 3.2 16.1 0.00 0.64 0.64 84 1006.8
20260506204506 21 173 8.0 19.3 0.00 0.64 0.64 85 1006.8
20260506204105 20 258 8.0 25.7 0.00 0.64 0.64 85 1007.1
20260506203606 20 244 9.7 25.7 0.00 0.64 0.64 84 1007.1
20260506203110 20 254 8.0 20.9 0.00 0.64 0.64 83 1007.1
20260506202612 21 203 8.0 19.3 0.00 0.64 0.64 82 1007.2
20260506202113 21 163 8.0 22.5 0.00 0.64 0.64 84 1007.2
20260506201615 21 198 12.9 22.5 0.00 0.64 0.64 81 1007.2
20260506201120 21 220 8.0 17.7 0.00 0.64 0.64 84 1007.2
20260506200509 21 252 4.8 12.9 0.00 0.64 0.64 84 1007.2
20260506200109 20 286 3.2 19.3 0.00 0.64 0.64 86 1007.2
20260506195611 20 203 8.0 20.9 0.00 0.64 0.64 84 1007.2
20260506195110 20 209 11.3 22.5 0.00 0.64 0.64 85 1007.2
20260506194611 20 228 11.3 22.5 0.00 0.64 0.64 86 1007.2
20260506194114 20 234 4.8 20.9 0.00 0.64 0.64 85 1007.2
20260506193616 20 219 6.4 19.3 0.00 0.64 0.64 85 1007.2
20260506193117 20 161 6.4 16.1 0.00 0.64 0.64 87 1007.2
20260506192619 20 325 6.4 27.4 0.00 0.64 0.64 85 1007.4
20260506192120 20 165 11.3 27.4 0.00 0.64 0.64 84 1007.4
20260506191510 20 207 11.3 25.7 0.00 0.64 0.64 84 1007.4
20260506191110 20 219 8.0 20.9 0.00 0.64 0.64 85 1007.3
20260506190515 20 220 6.4 25.7 0.00 0.64 0.64 85 1007.3
20260506190115 20 170 8.0 25.7 0.00 0.64 0.64 86 1007.3
20260506185616 20 199 9.7 20.9 0.00 0.64 0.64 87 1007.7
20260506185115 20 175 9.7 20.9 0.00 0.64 0.64 85 1007.7
20260506184615 19 206 9.7 20.9 0.00 0.64 0.64 86 1007.7
20260506184004 19 168 9.7 25.7 0.00 0.64 0.64 87 1007.7
20260506183605 19 214 11.3 25.7 0.00 0.64 0.64 88 1007.7
20260506183107 18 236 11.3 19.3 0.00 0.64 0.64 89 1007.7
20260506182608 18 202 6.4 19.3 0.00 0.64 0.64 88 1007.8
20260506182111 18 199 4.8 29.0 0.00 0.64 0.64 89 1007.8
20260506181614 18 233 8.0 29.0 0.00 0.64 0.64 88 1007.8
20260506181117 18 201 4.8 24.1 0.00 0.64 0.64 88 1007.9
20260506180511 18 198 4.8 20.9 0.00 0.64 0.64 89 1007.9
20260506180110 18 180 8.0 20.9 0.00 0.64 0.64 88 1007.9
20260506175610 18 158 6.4 22.5 0.00 0.64 0.64 89 1008.0
20260506175115 18 210 11.3 25.7 0.00 0.64 0.64 89 1008.0
20260506174613 18 234 11.3 25.7 0.00 0.64 0.64 89 1008.0
20260506174115 18 184 8.0 22.5 0.00 0.64 0.64 90 1008.1
20260506173615 18 213 8.0 24.1 0.03 0.64 0.64 91 1008.1
20260506173130 18 215 8.0 24.1 0.03 0.64 0.64 92 1008.1
20260506172622 17 240 11.3 27.4 0.03 0.64 0.64 91 1008.2
20260506172123 17 238 12.9 27.4 0.03 0.64 0.64 91 1008.2
20260506171505 17 234 4.8 24.1 0.03 0.64 0.64 94 1008.2
20260506171105 17 194 6.4 24.1 0.03 0.64 0.64 94 1008.3
20260506170518 17 211 11.3 27.4 0.05 0.64 0.64 93 1008.3